Moses Lake, WA

8:45 AM PDT on July 22, 2017 (GMT -0700)
Grant County International

Weather History for KMWH - April, 2014

Change the Weather History Date:

Wednesday, April 30, 2014

  Actual Average Record
Temperature  
Mean Temperature 59 °F 54 °F  
Max Temperature 79 °F 68 °F 89 °F (1998)
Min Temperature 38 °F 40 °F 32 °F (2007)
Degree Days  
Heating Degree Days 6 11  
Month to date heating degree days 367 444  
Since 1 July heating degree days 5512 5617  
Cooling Degree Days 0 0  
Month to date cooling degree days 0 1  
Year to date cooling degree days 0 1  
Growing Degree Days 8 (Base 50)    
Moisture  
Dew Point 31 °F    
Average Humidity 42    
Maximum Humidity 70    
Minimum Humidity 13    
Precipitation  
Precipitation 0.00 in 0.02 in 0.08 in (2012)
Month to date precipitation 0.77 0.70  
Year to date precipitation 2.63 3.42  
Sea Level Pressure  
Sea Level Pressure 30.43 in    
Wind  
Wind Speed 7 mph (North)    
Max Wind Speed 16 mph    
Max Gust Speed 31 mph    
Visibility 10 miles    
Events      
T = Trace of Precipitation, MM = Missing Value Source: NWS Daily Summary

Daily Weather History Graph

Daily Weather History Graph

Search for Another Location

Airport or City:

Trip Planner

Search our weather history database for the weather conditions in past years. The results will help you decide how hot, cold, wet, or windy it might be!

Date:

Astronomy

Apr. 30, 2014 Rise Set
Actual Time 5:42 AM PDT 8:07 PM PDT
Civil Twilight 5:08 AM PDT 8:41 PM PDT
Nautical Twilight 4:26 AM PDT 9:23 PM PDT
Astronomical Twilight 3:37 AM PDT 10:12 PM PDT
Moon 6:45 AM PDT (4/30) 9:54 PM PDT (4/30)
Length of Visible Light 15h 32m
Length of Day
14h 24m
Waxing Crescent, 3% of the Moon is Illuminated
Apr 30
Waxing Crescent
May 6
First Quarter
May 14
Full
May 21
Last Quarter
May 28
New

Hourly Weather History & Observations

Time (PDT) Temp. Windchill Dew Point Humidity Pressure Visibility Wind Dir Wind Speed Gust Speed Precip Events Conditions
12:52 AM 44.1 °F 40.1 °F 33.1 °F 65% 30.53 in 10.0 mi North 6.9 mph - N/A   Clear
1:52 AM 43.0 °F 37.7 °F 33.1 °F 68% 30.53 in 10.0 mi North 9.2 mph - N/A   Clear
2:52 AM 43.0 °F 37.7 °F 32.0 °F 65% 30.53 in 10.0 mi North 9.2 mph - N/A   Clear
3:52 AM 39.9 °F 34.5 °F 30.9 °F 70% 30.53 in 10.0 mi North 8.1 mph - N/A   Clear
4:52 AM 41.0 °F 36.4 °F 30.9 °F 67% 30.53 in 10.0 mi North 6.9 mph - N/A   Clear
5:52 AM 39.9 °F 34.5 °F 30.9 °F 70% 30.53 in 10.0 mi North 8.1 mph - N/A   Clear
6:52 AM 45.0 °F 40.1 °F 32.0 °F 60% 30.53 in 10.0 mi North 9.2 mph - N/A   Clear
7:52 AM 51.8 °F - 33.8 °F 50% 30.53 in 10.0 mi North 11.5 mph - N/A   Clear
8:52 AM 57.9 °F - 35.1 °F 42% 30.53 in 10.0 mi North 12.7 mph - N/A   Clear
9:52 AM 64.0 °F - 36.0 °F 35% 30.51 in 10.0 mi NNE 11.5 mph - N/A   Clear
10:52 AM 69.8 °F - 33.8 °F 27% 30.49 in 10.0 mi NE 4.6 mph - N/A   Clear
11:52 AM 73.9 °F - 30.0 °F 20% 30.46 in 10.0 mi NE 9.2 mph - N/A   Clear
12:52 PM 75.0 °F - 27.0 °F 17% 30.45 in 10.0 mi NE 6.9 mph - N/A   Clear
1:52 PM 75.9 °F - 25.0 °F 15% 30.43 in 10.0 mi Variable 3.5 mph - N/A   Clear
2:52 PM 78.1 °F - 24.1 °F 14% 30.40 in 10.0 mi Variable 3.5 mph - N/A   Clear
3:52 PM 78.1 °F - 24.1 °F 14% 30.37 in 10.0 mi Variable 3.5 mph - N/A   Clear
4:52 PM 78.1 °F - 24.1 °F 14% 30.35 in 10.0 mi Variable 3.5 mph - N/A   Clear
5:52 PM 78.1 °F - 26.1 °F 15% 30.32 in 10.0 mi Calm Calm - N/A   Clear
6:52 PM 77.0 °F - 26.1 °F 15% 30.29 in 10.0 mi North 5.8 mph - N/A   Clear
7:52 PM 70.0 °F - 28.9 °F 22% 30.28 in 10.0 mi North 4.6 mph - N/A   Clear
8:52 PM 62.1 °F - 33.1 °F 34% 30.29 in 10.0 mi North 6.9 mph - N/A   Clear
9:52 PM 57.9 °F - 37.0 °F 46% 30.29 in 10.0 mi North 5.8 mph - N/A   Clear
10:52 PM 55.0 °F - 35.1 °F 47% 30.28 in 10.0 mi North 5.8 mph - N/A   Clear
11:52 PM 51.1 °F - 35.1 °F 54% 30.27 in 10.0 mi North 9.2 mph - N/A   Clear